星链-4606 (STARLINK-4606 )

导读 | 星芒AI

STARLINK-4606 是 SpaceX 星链计划中的一颗低轨通信卫星,属于星链第四批发射任务的一部分。该卫星运行在约 550 公里的近地轨道,旨在为全球用户提供高速互联网服务。作为星链星座的重要成员,它支持宽带接入,提升偏远地区网络覆盖。卫星采用可再生太阳能供电,并具备自动避撞功能,以确保太空安全。星链项目计划部署数万颗卫星,构建全球性高速通信网络。

基本信息
目录编号:
53632
目录名称:
STARLINK-4606
国际标识:
2022-104AW
轨道中心:
EARTH
卫星名称:
星链-4606
卫星全名:
星链-4606 (STARLINK-4606 )
卫星状态:
在轨 (已飞行1165 天)
发射日期:
2022-08-28 UTC
国别 :
美国 (US)
星等 :
--
轨道信息
数据来源 国际轨道数据
星历时间: 2025-11-04T19:36:31+0800
14小时前
查看轨道信息
半长轴: 6917.887km
偏心率: 0.0001198
轨道倾角: 53.217°
近地点辐角 88.092°
升交点赤经 66.174°
平近点角 272.021°
近地点: 538.923km
远地点: 540.581km
周期: 95.438分钟
每日圈数: 15.088381
详细信息
固有亮度:
5
最大亮度:
2.5
卫星平台:
Starlink v1.5
覆盖范围:
全球
运营商:
太空探索技术公司
运营商所在国:
美国
制造商(研发单位):
太空探索技术公司
制造商所在国:
美国
使用方式:
暂无
卫星简介
星链(Starlink)计划是由太空探索技术公司(SpaceX)提出的一个巨型低轨卫星互联网星座项目,计划在2019年至2024年间在太空搭建由约1.2万颗卫星组成的“星链”网络,其中1584颗将部署在地球上空550千米处的近地轨道,并从2020年开始工作。该卫星仍在工作。
2D轨道图
3D轨道图
轨道高度分析图
轨道倾角分析图
轨道综合分析图
查看轨道综合分析图